Stations météo

Publicité
Le Havre/Octeville, France (7046): Température de l'air & dewpoint: 15.10.2017 10:00:00 - 21.10.2017 10:00:00 (CEST)Le Havre/Octeville, France (7046): Vitesse du vent & gusts: 15.10.2017 10:00:00 - 21.10.2017 10:00:00 (CEST)Le Havre/Octeville, France (7046): Direction du vent: 15.10.2017 10:00:00 - 21.10.2017 10:00:00 (CEST)Le Havre/Octeville, France (7046): reduced air pressure: 15.10.2017 10:00:00 - 21.10.2017 10:00:00 (CEST)Le Havre/Octeville, France (7046): visibility: 15.10.2017 10:00:00 - 21.10.2017 10:00:00 (CEST)Le Havre/Octeville, France (7046): Quantités de précipitations: 15.10.2017 10:00:00 - 21.10.2017 10:00:00 (CEST)
Date & Time tt [°C] td [°C] ff [km/h] ff [knt] fx [km/h] fx [knt] dd ppp [hPa] vv [km] rr [mm]
21.10.2017 10:00:00 14,0 9,8 34 18 60 33 SSW 1010,1 10 0,0
21.10.2017 09:00:00 13,9 9,9 35 19 61 33 SSW 1009,5 10 0,0
21.10.2017 08:00:00 13,9 10,7 31 17 54 29 SSW 1009,1 10 0,0
21.10.2017 07:00:00 14,3 11,3 29 16 52 28 SSW 1008,8 20 0,0
21.10.2017 06:00:00 14,3 12,2 26 14 45 24 SSW 1008,2 60 0,2
21.10.2017 05:00:00 13,6 11,5 29 16 59 32 SSW 1008,0 10 0,6
21.10.2017 04:00:00 14,4 12,1 34 18 60 32 SSW 1008,1 6 0,6
21.10.2017 03:00:00 15,8 12,2 28 15 46 25 S 1007,4 10 0,0
21.10.2017 02:00:00 15,3 11,5 24 13 46 25 SSE 1007,8 10 0,0
21.10.2017 01:00:00 15,0 10,8 28 15 53 29 SSE 1008,9 10 0,0
21.10.2017 00:00:00 14,8 9,8 28 15 50 27 S 1009,7 10 0,0
20.10.2017 23:00:00 14,4 9,2 18 10 38 20 S 1010,6 10 0,0
20.10.2017 22:00:00 13,8 8,8 14 8 31 17 SSE 1011,1 47 0,0
20.10.2017 21:00:00 14,0 9,0 15 8 26 14 S 1011,6 41 0,0
20.10.2017 20:00:00 14,3 8,5 13 7 31 17 S 1012,2 46 0,0
20.10.2017 19:00:00 14,6 8,5 16 9 35 19 S 1012,3 52 0,0
20.10.2017 18:00:00 14,8 7,3 23 12 40 22 SSW 1012,7 44 0,0
20.10.2017 17:00:00 15,1 7,4 26 14 42 23 SSW 1012,8 60 0,0
20.10.2017 16:00:00 15,4 7,7 28 15 43 23 SSW 1012,7 10 0,0
20.10.2017 15:00:00 14,6 9,6 22 12 44 24 SSW 1012,7 10 0,0
20.10.2017 14:00:00 14,3 9,7 28 15 44 24 SW 1012,8 10 0,0
20.10.2017 13:00:00 14,5 8,0 35 19 61 33 WSW 1012,7 8 0,0
20.10.2017 12:00:00 13,9 8,3 42 23 58 32 SW 1012,2 10 0,0
20.10.2017 11:00:00 13,1 9,9 31 17 50 27 SW 1011,4 14 0,0
20.10.2017 10:00:00 12,4 9,9 29 16 54 29 SW 1010,4 18 0,0
20.10.2017 09:00:00 12,0 9,9 32 18 58 31 SW 1009,3 20 0,0
20.10.2017 08:00:00 12,0 9,4 35 19 59 32 SSW 1008,1 28 0,0
20.10.2017 07:00:00 12,1 9,3 35 19 55 30 SSW 1007,5 32 0,0
20.10.2017 06:00:00 12,2 9,4 35 19 59 32 SSW 1006,5 18 0,0
20.10.2017 05:00:00 12,5 10,0 31 17 55 30 SSW 1006,0 10 0,0
20.10.2017 04:00:00 12,9 9,9 34 18 53 29 SSW 1005,7 41 0,0
20.10.2017 03:00:00 13,1 10,1 34 18 54 29 SW 1005,2 10 0,0
20.10.2017 02:00:00 13,8 11,3 31 17 53 29 SW 1004,9 49 0,0
20.10.2017 01:00:00 13,8 12,7 22 12 61 33 SSW 1003,8 45 0,8
20.10.2017 00:00:00 14,2 11,4 29 16 56 31 S 1003,2 60 0,0
19.10.2017 23:00:00 14,4 11,9 32 17 54 29 SSE 1003,6 16 3,2
19.10.2017 22:00:00 15,4 12,5 28 15 51 28 S 1004,0 7 2,0
19.10.2017 21:00:00 17,0 11,7 24 13 44 24 S 1003,9 46 0,0
19.10.2017 20:00:00 17,0 12,5 17 9 35 19 SSE 1004,1 41 0,0
19.10.2017 19:00:00 17,2 12,7 19 11 44 24 S 1004,5 40 0,0
19.10.2017 18:00:00 17,8 12,9 21 11 32 18 S 1004,5 47 0,0
19.10.2017 17:00:00 17,7 13,2 19 10 38 20 S 1004,4 40 0,0
19.10.2017 16:00:00 18,0 13,5 18 10 43 23 S 1004,9 10 0,0
19.10.2017 15:00:00 17,3 14,2 21 11 45 25 S 1005,0 10 0,0
19.10.2017 14:00:00 18,3 14,2 22 12 37 20 S 1005,3 10 0,0
19.10.2017 13:00:00 17,1 14,2 21 11 38 21 S 1006,2 10 0,0
19.10.2017 12:00:00 17,1 14,0 21 11 37 20 SSE 1005,9 10 0,0
19.10.2017 11:00:00 15,6 13,1 16 9 32 17 SE 1005,7 10 0,0
19.10.2017 10:00:00 14,0 12,2 21 11 32 17 SE 1005,9 10 0,0
19.10.2017 09:00:00 13,4 11,8 18 10 26 14 ESE 1006,1 9 0,2
19.10.2017 08:00:00 13,9 11,8 18 10 31 17 ESE 1006,4 10 0,0
19.10.2017 07:00:00 13,9 12,6 11 6 17 9 E 1006,8 8 0,0
19.10.2017 06:00:00 13,9 12,8 13 7 16 9 E 1007,5 7 0,0
19.10.2017 05:00:00 13,2 12,6 11 6 14 7 E 1008,1 6 0,0
19.10.2017 04:00:00 13,4 12,9 6 4 13 7 E 1008,7 6 0,0
19.10.2017 03:00:00 13,6 13,3 9 5 12 7 E 1009,0 4,8 0,0
19.10.2017 02:00:00 13,0 12,5 5 3 11 6 NE 1009,6 3,4 0,0
19.10.2017 01:00:00 13,9 12,8 0 0 10 5 N 1009,9 6 0,0
19.10.2017 00:00:00 15,5 14,5 6 4 10 5 SE 1010,7 6 0,0
18.10.2017 23:00:00 15,9 14,8 6 3 9 5 SE 1010,7 5 0,0
18.10.2017 22:00:00 14,7 13,2 2 1 6 3 SSE 1010,6 4,9 0,0
18.10.2017 21:00:00 15,8 14,2 3 2 7 4 SSE 1010,6 9 0,0
18.10.2017 20:00:00 17,5 14,6 5 3 7 4 ESE 1010,8 14 0,0
18.10.2017 19:00:00 18,3 14,6 5 3 11 6 SSE 1010,4 17 0,0
18.10.2017 18:00:00 19,2 14,9 9 5 20 11 SSE 1010,3 10 0,0
18.10.2017 17:00:00 19,6 15,3 11 6 18 10 SE 1010,2 10 0,0
18.10.2017 16:00:00 19,3 15,2 8 4 14 8 SE 1010,5 10 0,0
18.10.2017 15:00:00 18,8 15,3 8 4 23 12 S 1010,7 10 0,0
18.10.2017 14:00:00 18,8 15,5 13 7 23 12 S 1011,3 10 0,0
18.10.2017 13:00:00 17,2 15,4 11 6 19 10 SE 1011,8 10 0,2
18.10.2017 12:00:00 16,1 14,5 11 6 20 11 SSE 1011,8 10 0,0
18.10.2017 11:00:00 15,7 14,2 11 6 19 11 SSE 1011,9 10 0,0
18.10.2017 10:00:00 14,9 13,8 9 5 15 8 SE 1011,8 7 0,2
18.10.2017 09:00:00 14,4 13,3 8 4 18 10 SE 1011,5 10 0,0
18.10.2017 08:00:00 14,3 13,0 9 5 14 8 SE 1011,4 7 0,2
18.10.2017 07:00:00 14,2 13,1 9 5 13 7 SE 1011,7 6 0,0
18.10.2017 06:00:00 14,4 13,3 8 4 13 7 ESE 1011,5 6 0,0
18.10.2017 05:00:00 14,4 13,6 10 5 16 9 ESE 1011,9 4,2 0,0
18.10.2017 04:00:00 14,7 13,7 10 5 20 11 ESE 1012,5 4,6 0,0
18.10.2017 03:00:00 14,7 13,6 13 7 21 12 E 1013,0 6 0,0
18.10.2017 02:00:00 15,2 13,7 14 7 22 12 ESE 1013,4 7 0,0
18.10.2017 01:00:00 13,6 12,7 14 7 18 10 E 1013,7 9 0,0
18.10.2017 00:00:00 13,2 12,1 13 7 20 11 E 1014,4 13 0,0
17.10.2017 23:00:00 12,7 11,3 15 8 19 11 E 1015,0 10 0,0
17.10.2017 22:00:00 12,6 11,0 11 6 22 12 ENE 1015,7 10 0,0
17.10.2017 21:00:00 13,1 11,0 15 8 22 12 E 1016,0 10 0,0
17.10.2017 20:00:00 13,8 11,0 16 9 23 13 ENE 1016,4 10 0,0
17.10.2017 19:00:00 14,7 11,1 16 9 25 13 ENE 1016,5 10 0,0
17.10.2017 18:00:00 15,7 11,7 18 10 25 13 ENE 1016,9 10 0,0
17.10.2017 17:00:00 16,4 10,9 16 9 23 12 NE 1017,6 10 0,0
17.10.2017 16:00:00 16,5 10,6 13 7 18 10 ENE 1018,2 10 0,0
17.10.2017 15:00:00 16,8 11,1 9 5 21 12 NNE 1019,2 10 0,0
17.10.2017 14:00:00 16,1 10,4 11 6 16 8 NE 1020,1 20 0,0
17.10.2017 13:00:00 15,4 10,0 11 6 18 10 E 1021,2 10 0,0
17.10.2017 12:00:00 15,1 10,7 9 5 14 8 E 1021,7 10 0,0
17.10.2017 11:00:00 14,5 10,7 8 4 10 5 SE 1022,4 10 0,0
17.10.2017 10:00:00 13,5 11,0 5 3 11 6 ESE 1022,2 10 0,0
17.10.2017 09:00:00 13,6 10,4 3 2 6 4 S 1022,2 16 0,0
17.10.2017 08:00:00 13,3 9,7 4 2 18 10 WSW 1021,8 10 0,0
17.10.2017 07:00:00 14,0 9,8 15 8 18 10 W 1022,0 10 0,0
17.10.2017 06:00:00 13,6 9,4 14 8 22 12 WSW 1022,1 20 0,0
17.10.2017 05:00:00 14,0 9,6 16 9 27 15 WSW 1022,1 20 0,0
17.10.2017 04:00:00 14,2 10,0 16 9 31 17 W 1022,2 10 0,0
17.10.2017 03:00:00 14,4 9,8 20 11 31 17 W 1022,5 20 0,0
17.10.2017 02:00:00 14,6 12,1 19 10 30 16 SW 1022,7 17 0,0
17.10.2017 01:00:00 14,9 12,4 22 12 33 18 SW 1022,7 10 0,0
17.10.2017 00:00:00 15,2 12,3 19 11 31 17 SW 1022,6 17 0,0
16.10.2017 23:00:00 15,7 12,6 18 10 31 17 SW 1022,4 17 0,0
16.10.2017 22:00:00 16,1 12,8 20 11 34 18 SW 1021,9 18 0,0
16.10.2017 21:00:00 16,9 13,0 21 11 36 19 WSW 1021,4 19 0,0
16.10.2017 20:00:00 16,9 14,2 17 9 35 19 WSW 1020,8 16 0,0
16.10.2017 19:00:00 17,5 14,2 22 12 38 20 WSW 1020,2 19 0,0
16.10.2017 18:00:00 18,6 14,3 21 11 31 17 SW 1019,7 10 0,0
16.10.2017 17:00:00 20,5 15,1 22 12 33 18 SSW 1019,2 10 0,0
16.10.2017 16:00:00 20,9 15,4 17 9 29 16 S 1018,7 18 0,0
16.10.2017 15:00:00 21,5 15,1 16 9 34 18 S 1018,2 10 0,0
16.10.2017 14:00:00 21,9 15,0 22 12 37 20 S 1018,2 10 0,0
16.10.2017 13:00:00 21,4 14,5 24 13 41 22 S 1018,4 10 0,0
16.10.2017 12:00:00 22,2 13,5 22 12 41 22 SE 1017,8 60 0,0
16.10.2017 11:00:00 20,5 13,7 19 10 33 18 ESE 1017,1 49 0,0
16.10.2017 10:00:00 19,8 13,3 15 8 33 18 ESE 1017,4 10 0,0
16.10.2017 09:00:00 20,9 12,3 16 9 38 20 SE 1017,1 10 0,0
16.10.2017 08:00:00 21,8 12,4 20 11 36 19 SSE 1017,1 55 0,0
16.10.2017 07:00:00 20,5 14,4 15 8 37 20 ESE 1017,6 43 0,0
16.10.2017 06:00:00 21,0 14,2 20 11 36 19 S 1017,6 46 0,0
16.10.2017 05:00:00 20,8 14,4 21 11 35 19 SSE 1018,1 10 0,0
16.10.2017 04:00:00 21,2 14,8 22 12 45 25 S 1018,2 10 0,0
16.10.2017 03:00:00 21,2 15,5 26 14 44 24 SSE 1018,5 35 0,0
16.10.2017 02:00:00 21,1 15,2 24 13 40 22 SSE 1018,8 10 0,0
16.10.2017 01:00:00 21,4 14,8 21 12 39 21 SSE 1018,9 36 0,0
16.10.2017 00:00:00 21,6 14,3 18 10 36 20 SSE 1019,2 10 0,0
15.10.2017 23:00:00 21,6 14,7 21 11 36 19 SSE 1019,1 10 0,0
15.10.2017 22:00:00 21,0 14,9 19 10 31 17 SSE 1019,1 31 0,0
15.10.2017 21:00:00 20,8 15,3 18 10 32 18 SSE 1019,1 10 0,0
15.10.2017 20:00:00 21,1 15,4 19 10 32 17 SSE 1019,2 29 0,0
15.10.2017 19:00:00 21,5 15,1 16 9 27 15 SSE 1019,1 10 0,0
15.10.2017 18:00:00 22,2 14,6 16 9 29 15 SSE 1018,9 10 0,0
15.10.2017 17:00:00 22,7 14,3 16 9 31 17 S 1018,8 10 0,0
15.10.2017 16:00:00 22,7 14,8 16 9 30 16 S 1019,2 10 0,0
15.10.2017 15:00:00 22,2 14,8 20 11 29 16 S 1019,4 23 0,0
15.10.2017 14:00:00 21,7 14,3 18 10 29 15 SSE 1019,4 10 0,0
15.10.2017 13:00:00 20,9 14,1 15 8 24 13 SSE 1020,0 23 0,0
15.10.2017 12:00:00 19,5 13,7 14 7 25 14 SSE 1020,2 22 0,0
15.10.2017 11:00:00 18,0 12,9 15 8 22 12 S 1020,6 10 0,0
15.10.2017 10:00:00 16,9 12,4 10 6 16 9 SSE 1020,6 20 0,0

tt = Température de l'air
td = dewpoint
ff = Vitesse du vent
fx = gusts
dd = Direction du vent
ppp = reduced air pressure
vv = visibility
rr = Quantités de précipitations

stations d'obs. à proximité